SCP
0 0 0 0 0 0 0 0 0 0 0 0 0 0 0 0 0 0 0 1 1 1 1 0 0 0 0 1 1 1 1 1 1 1 1 1 1 0 0 0 0 1 1 0
0 0 0 0 0 0 0 0 0 0 0 0 0 0 0 0 0 0 0 1 1 1 1 1 0 0 0 1 1 1 1 1 1 1 1 1 1 1 0 0 1 1 1 1
0 0 0 0 0 0 0 0 0 0 0 0 0 0 0 0 0 0 0 0 1 1 1 1 0 0 1 1 1 1 1 1 1 1 1 1 1 1 1 1 1 1 1 1
0 0 0 0 0 0 0 0 0 0 0 0 0 0 0 0 0 0 0 0 0 1 1 1 1 1 1 1 1 1 1 1 1 1 1 1 1 1 0 0 1 1 1 0
0 0 0 0 0 0 0 0 0 0 0 0 0 0 0 0 0 0 0 0 0 1 1 1 1 1 1 1 1 1 1 1 1 1 1 1 0 0 0 0 0 0 0 0
0 0 0 0 0 0 0 0 0 0 0 0 0 0 0 0 0 0 0 0 0 1 1 1 1 1 1 1 1 1 1 1 1 1 1 1 1 0 0 0 0 0 0 1
0 0 0 0 0 0 0 0 0 0 0 0 0 0 0 0 0 0 0 0 0 1 1 1 1 1 1 1 1 1 1 1 1 1 1 1 1 1 0 0 0 0 0 0
0 0 0 0 0 0 0 0 0 0 0 0 0 0 0 0 0 0 0 0 0 1 1 1 1 1 1 1 1 1 1 1 1 1 1 1 1 1 0 0 0 0 0 0
0 0 0 0 0 0 0 0 0 0 0 0 0 0 0 0 0 0 0 0 0 1 1 1 1 1 1 1 1 1 1 1 1 1 1 1 1 1 0 0 0 0 1 1
0 0 0 0 0 0 0 0 0 0 0 0 0 0 0 0 0 0 0 0 1 1 1 1 1 1 1 1 1 1 1 1 1 1 1 1 1 1 1 1 1 1 1 1
0 0 0 0 0 0 0 0 0 0 0 0 0 0 0 0 0 0 0 1 1 1 1 1 1 1 1 1 1 1 1 1 1 1 1 1 1 1 1 1 1 1 1 1
0 0 0 0 0 0 0 0 0 0 0 0 0 0 0 0 0 0 1 1 1 1 1 1 1 1 1 1 1 1 1 1 1 1 1 1 1 1 1 1 1 1 1 1
0 0 0 0 0 0 0 0 0 0 0 0 0 0 0 0 0 0 1 1 1 1 1 1 1 1 1 1 1 1 1 1 1 1 1 1 1 1 1 1 1 1 1 1
0 0 0 0 0 0 0 0 0 0 0 0 0 0 0 0 0 1 1 1 1 1 1 1 1 1 1 1 1 1 1 1 1 1 1 1 1 1 1 1 1 1 1 1
0 0 0 0 0 0 0 0 0 0 0 0 0 0 0 0 1 1 1 1 1 1 1 1 1 1 1 1 1 1 1 1 1 1 1 1 1 1 1 1 2 2 2 1
0 0 0 0 0 0 0 0 0 0 0 0 0 0 0 1 1 1 1 1 1 1 1 1 1 1 1 1 2 2 2 2 1 1 1 2 2 2 2 2 2 2 2 2
0 0 0 0 0 0 0 0 0 0 0 0 0 0 1 1 1 1 1 1 1 1 1 1 1 1 1 1 1 2 2 1 1 1 2 2 2 2 2 2 2 2 2 2
0 0 0 0 0 0 0 0 0 0 0 0 0 1 1 1 1 1 1 1 1 1 1 1 1 1 1 1 1 1 1 1 1 1 1 2 2 2 2 2 2 2 2 2
0 0 0 0 0 0 0 0 0 0 0 0 1 1 1 1 1 1 1 1 1 1 1 1 1 1 1 1 1 1 1 1 1 1 1 1 1 1 2 2 2 2 2 2
0 0 0 0 0 0 0 0 0 0 0 1 1 1 1 1 1 1 1 1 1 1 1 1 1 1 1 1 1 1 1 1 1 1 1 1 1 1 1 1 2 2 2 1
0 0 0 0 0 0 0 0 0 0 1 1 1 1 1 1 1 1 1 1 1 1 1 1 1 1 1 1 1 1 1 1 1 2 1 1 1 1 1 1 2 2 1 1
0 0 0 0 0 0 0 0 0 1 1 1 1 1 1 1 1 1 1 1 1 1 0 0 1 1 1 1 1 1 1 1 1 1 1 1 1 1 1 1 1 1 1 1
0 0 0 0 0 0 0 0 0 1 1 1 0 1 1 1 1 1 1 1 1 0 0 0 0 1 1 1 1 1 1 1 1 1 1 1 1 1 1 1 1 1 1 1
0 0 0 0 0 0 0 0 0 0 0 0 0 1 1 1 1 1 1 1 0 0 0 0 1 1 1 1 1 1 1 1 1 1 1 1 1 1 1 1 1 1 1 1
0 0 0 0 0 1 0 0 0 0 0 0 0 1 1 1 1 1 1 1 0 0 0 1 1 1 1 1 1 1 1 1 1 1 1 1 1 1 1 1 1 1 1 1
0 0 0 0 1 1 0 0 0 0 0 0 0 1 1 1 1 1 1 1 0 0 0 1 1 1 1 1 1 1 1 1 1 1 1 1 1 1 1 1 1 1 0 0
Wind_Speed
12 11 10 8 6 10 11 10 7 4 4 4 4 4 6 7 8 8 9 10 10 10 10 10 8 8 8 7 7 5 4 3 2 2 2 2 2 1 1 2 2 3 2 2
12 13 12 10 8 9 10 10 10 5 3 4 6 5 5 6 7 7 9 10 11 11 10 10 9 8 8 7 7 6 5 4 2 1 1 1 1 2 2 2 2 3 2 2
14 11 8 10 8 8 11 10 9 7 6 8 8 6 6 6 6 7 9 10 11 12 12 12 10 9 8 8 7 6 5 4 3 2 2 1 1 1 1 2 2 2 2 2
14 13 11 10 9 9 10 10 10 10 9 7 8 5 6 9 9 9 9 10 10 11 11 11 11 10 8 8 8 7 6 4 3 2 2 2 2 1 1 1 2 2 2 2
12 12 11 11 10 9 10 10 10 11 9 9 9 8 6 10 10 9 9 10 10 11 11 11 11 10 9 9 8 8 6 5 4 3 2 1 1 1 1 1 1 2 2 2
15 13 11 10 11 10 10 10 10 10 9 10 10 9 5 6 8 10 11 10 11 11 11 11 11 10 9 9 9 9 7 6 5 4 3 2 1 1 0 1 1 1 1 1
15 15 12 10 12 11 11 8 6 8 8 8 8 7 2 5 7 9 10 9 10 11 11 11 11 11 9 9 8 9 8 7 6 5 3 2 2 1 1 1 1 1 1 1
13 12 11 10 10 10 10 10 9 9 8 7 4 4 2 2 5 7 9 10 10 10 9 10 11 10 9 9 8 8 8 7 6 4 3 2 2 2 1 1 1 1 1 0
10 10 8 9 9 12 12 11 13 12 12 8 5 3 3 3 4 4 7 8 8 9 9 9 10 9 9 9 8 8 8 7 6 5 4 3 2 2 1 1 1 1 1 1
12 11 9 8 9 12 13 12 9 8 8 8 7 6 3 5 5 5 5 6 6 6 7 7 8 8 7 7 7 7 7 7 6 5 5 4 3 2 1 1 0 1 0 0
12 12 10 9 10 11 11 12 10 7 7 9 6 3 2 2 3 4 5 6 7 6 6 6 6 6 7 8 7 7 6 7 6 6 4 4 4 4 3 2 2 1 1 1
9 11 11 11 10 11 11 11 11 9 8 9 7 3 3 3 1 3 3 5 6 4 5 5 6 5 5 6 6 6 6 6 6 6 5 4 3 4 4 4 3 3 2 2
5 8 10 10 9 9 10 10 12 12 9 8 8 2 2 3 1 2 4 6 6 4 4 5 5 4 4 4 5 5 6 6 6 6 5 5 4 4 4 4 4 3 2 2
6 10 11 12 9 8 10 12 12 12 9 9 7 3 2 1 1 2 5 6 6 5 5 5 5 4 3 3 3 4 3 4 5 5 5 5 4 4 4 3 4 4 3 3
8 10 13 15 15 12 11 13 13 12 11 10 7 4 3 0 1 2 5 5 6 5 5 6 4 3 3 3 3 3 3 3 3 3 4 4 4 3 3 3 3 3 3 3
7 9 13 16 16 14 13 13 14 14 11 8 8 3 1 2 3 4 5 5 5 5 4 5 4 3 3 2 2 2 2 3 3 3 3 3 3 3 3 3 3 3 3 2
8 9 12 13 14 14 14 12 11 10 8 7 4 2 1 3 2 3 4 5 5 4 4 4 3 3 2 2 1 0 2 2 3 3 3 3 3 3 3 4 3 2 2 2
10 9 9 11 12 15 9 9 10 8 5 3 2 2 3 3 4 5 5 6 5 4 5 4 2 2 2 2 1 0 1 1 2 2 2 3 3 3 3 3 3 3 3 2
11 10 10 10 12 12 10 8 8 7 2 4 3 4 4 4 4 4 6 6 5 5 4 3 3 3 2 1 1 1 1 1 1 1 2 2 2 2 3 3 3 3 3 3
10 9 10 11 12 11 7 6 8 8 4 5 5 4 4 4 1 3 5 6 6 5 4 3 3 3 3 3 2 2 2 2 1 1 1 1 1 2 2 2 2 2 2 3
9 10 12 12 12 7 5 7 6 5 3 6 7 6 5 5 4 4 6 6 5 5 4 4 4 3 3 3 3 3 3 2 3 3 2 1 1 2 2 2 2 2 2 3
6 7 9 10 11 6 4 4 3 3 4 5 6 5 6 5 4 5 5 5 5 4 3 3 3 3 3 3 3 3 2 3 2 2 2 1 1 3 2 2 2 3 3 3
5 5 5 3 3 3 5 5 5 5 3 3 4 5 5 4 4 4 4 4 3 2 2 2 2 2 2 2 2 1 1 1 1 1 1 1 2 1 2 2 2 3 3 4
3 4 5 4 4 3 4 4 5 5 5 5 5 4 4 4 3 3 3 2 1 1 1 0 0 0 1 1 1 1 1 1 1 1 1 1 2 2 2 1 2 2 2 3
7 5 5 5 5 5 4 4 5 6 4 5 5 5 4 4 3 3 2 2 1 1 0 0 0 1 1 1 0 1 1 1 1 1 2 2 2 2 2 1 1 1 0 1
5 5 5 5 5 5 6 6 5 5 4 5 5 7 6 4 3 3 3 3 2 2 1 1 1 1 1 1 1 1 0 0 1 2 2 3 3 2 2 2 1 1 1 2
Wind_Direction
238 242 251 250 243 268 281 291 290 275 280 272 254 214 192 176 174 171 167 166 165 161 157 151 150 148 142 135 133 132 137 139 146 155 167 173 171 180 167 163 164 162 187 201
245 240 250 264 260 267 273 277 277 273 264 268 268 240 194 185 187 179 171 170 167 161 156 153 156 157 151 145 144 142 145 140 150 150 157 177 162 179 178 162 147 157 178 212
248 255 250 256 264 275 278 271 280 289 283 268 258 247 210 193 194 180 175 176 171 166 164 159 162 166 162 153 149 147 144 142 150 166 166 163 149 195 174 150 149 162 178 197
250 256 263 261 258 260 268 279 283 283 280 279 276 257 214 193 193 186 183 176 170 166 165 165 167 168 163 158 152 142 145 145 155 178 179 190 183 179 195 171 144 156 180 191
252 250 250 259 263 261 269 283 284 281 280 277 266 266 231 193 188 183 183 172 165 163 163 162 164 166 166 163 158 152 147 152 158 174 169 204 210 193 188 173 150 170 174 184
260 261 251 254 264 259 270 279 283 278 270 261 258 257 240 197 194 178 172 168 166 162 159 158 158 161 165 165 163 154 153 158 164 172 169 190 205 217 209 202 178 200 188 174
249 248 242 238 251 250 252 263 271 265 249 251 252 250 221 179 168 159 160 167 164 156 155 158 160 165 166 163 158 153 157 163 167 170 170 181 193 193 224 247 233 248 229 171
250 244 228 227 239 258 254 249 256 271 280 286 265 251 170 161 124 140 150 158 157 151 156 164 165 166 166 163 157 153 151 157 161 162 164 171 175 201 212 239 254 229 241 48
263 260 236 228 236 250 260 258 264 273 277 281 284 256 181 159 132 144 140 141 148 152 159 160 160 162 165 164 158 156 150 151 158 165 168 177 175 195 209 214 205 240 221 160
272 280 260 238 237 239 255 264 269 269 286 285 272 250 213 151 157 147 140 137 137 147 152 151 152 155 155 158 156 153 149 154 162 172 185 179 178 191 186 238 188 164 246 23
264 270 263 249 239 247 247 253 263 275 277 276 279 297 93 169 166 146 146 147 143 147 146 147 149 153 153 154 158 159 159 161 171 177 178 178 179 186 185 200 208 194 204 200
261 269 271 264 256 253 258 255 257 260 261 274 278 273 102 120 98 119 127 114 106 119 127 125 130 137 147 156 160 161 164 172 177 174 181 186 183 191 197 202 201 201 199 196
291 276 270 260 253 251 253 254 256 263 261 262 266 236 129 130 134 113 94 93 104 104 108 109 111 124 139 151 151 162 167 177 179 175 184 192 199 207 209 199 194 194 198 200
274 263 270 269 274 279 273 269 265 265 267 269 263 222 215 147 81 98 106 115 112 107 104 102 100 119 135 137 137 155 163 179 181 179 192 196 202 203 211 210 194 191 200 207
262 262 268 273 275 274 275 277 273 267 268 268 275 258 268 149 83 98 111 106 101 95 93 91 94 103 121 132 138 147 175 186 185 185 193 195 202 203 205 207 196 195 205 217
269 277 276 272 272 274 264 259 259 260 262 260 263 273 95 71 85 82 94 99 99 105 99 93 97 94 88 93 118 149 195 196 186 199 204 189 201 208 210 208 196 197 207 227
270 270 273 273 275 273 264 258 261 266 267 273 275 293 69 80 70 99 106 100 95 92 91 87 90 101 108 103 73 148 216 204 185 188 193 190 200 206 214 218 198 194 206 211
267 272 270 269 271 262 277 296 288 279 291 314 339 59 43 61 70 60 75 83 77 75 78 79 65 85 97 101 118 233 246 189 189 192 199 201 203 208 199 203 200 196 206 209
253 254 259 262 262 257 271 295 314 306 301 352 358 31 47 60 88 76 65 75 72 65 67 69 56 51 68 95 90 95 44 51 182 206 216 214 208 213 207 212 204 194 209 220
237 239 250 257 262 262 278 316 316 288 251 356 2 16 23 27 27 58 59 66 65 54 62 64 66 59 56 51 45 63 71 54 22 7 335 284 223 225 221 216 216 211 216 226
232 229 241 253 261 268 312 322 302 273 329 3 15 8 20 35 47 54 56 57 60 49 58 59 62 60 59 56 57 41 40 22 9 14 12 4 329 247 223 212 202 214 230 238
264 254 243 250 257 263 355 326 353 21 12 16 16 17 32 41 41 48 52 52 57 51 50 55 62 68 70 72 70 55 35 17 22 21 7 347 308 280 255 212 210 216 232 241
257 279 287 281 280 8 40 31 22 15 359 12 7 20 32 31 27 37 42 47 57 63 55 52 71 69 66 67 75 55 27 36 13 358 339 318 284 267 279 257 231 220 224 232
287 323 306 301 289 343 36 24 10 359 348 358 9 7 10 13 12 24 33 28 22 50 57 8 63 69 52 35 16 6 15 26 359 327 306 277 264 259 250 249 242 234 239 236
313 316 290 283 307 322 347 1 356 323 340 349 352 348 359 4 5 5 2 1 343 312 317 282 248 214 172 132 355 346 1 360 316 290 283 272 255 245 247 229 269 254 241 249
293 300 293 298 322 311 317 328 327 325 330 333 345 346 348 353 351 350 341 331 318 299 286 263 270 283 278 261 269 285 263 270 282 275 279 284 278 257 231 206 215 5 211 172